owner,sensor,date,latitude,longitude,vertical_datum,wind_speed,wind_to_direction,wind_speed_of_gust,qcFlag 
COMPS,ioos:station:USF.COMPS:FHP:1,2015-07-01T03:00:00Z,28.1530,-82.8010,10.0,2.0,244.95,2.74,'1111122,1111122,1111122' 
COMPS,ioos:station:USF.COMPS:FHP:1,2015-07-01T03:06:00Z,28.1530,-82.8010,10.0,2.68,222.09,3.43,'1111122,1111122,1111122' 
COMPS,ioos:station:USF.COMPS:FHP:1,2015-07-01T03:12:00Z,28.1530,-82.8010,10.0,1.74,237.56,2.35,'1111122,1111122,1111122' 
COMPS,ioos:station:USF.COMPS:FHP:1,2015-07-01T03:18:00Z,28.1530,-82.8010,10.0,2.01,252.71,3.33,'1111122,1111122,1111122' 
COMPS,ioos:station:USF.COMPS:FHP:1,2015-07-01T03:24:00Z,28.1530,-82.8010,10.0,2.36,246.51,2.94,'1111122,1111122,1111122' 
COMPS,ioos:station:USF.COMPS:FHP:1,2015-07-01T03:30:00Z,28.1530,-82.8010,10.0,1.96,235.74,2.74,'1111122,1111122,1111122' 
COMPS,ioos:station:USF.COMPS:FHP:1,2015-07-01T03:36:00Z,28.1530,-82.8010,10.0,1.79,257.64,2.35,'1111122,1111122,1111122' 
COMPS,ioos:station:USF.COMPS:FHP:1,2015-07-01T03:42:00Z,28.1530,-82.8010,10.0,2.46,246.56,3.33,'1111122,1111122,1111122' 
COMPS,ioos:station:USF.COMPS:FHP:1,2015-07-01T03:48:00Z,28.1530,-82.8010,10.0,2.27,237.53,3.33,'1111122,1111122,1111122' 
COMPS,ioos:station:USF.COMPS:FHP:1,2015-07-01T03:54:00Z,28.1530,-82.8010,10.0,2.48,230.94,3.43,'1111122,1111122,1111122' 
COMPS,ioos:station:USF.COMPS:FHP:1,2015-07-01T04:00:00Z,28.1530,-82.8010,10.0,1.79,233.41,3.03,'1111122,1111122,1111122' 
COMPS,ioos:station:USF.COMPS:FHP:1,2015-07-01T04:06:00Z,28.1530,-82.8010,10.0,2.55,244.6,3.03,'1111122,1111122,1111122' 
COMPS,ioos:station:USF.COMPS:FHP:1,2015-07-01T04:12:00Z,28.1530,-82.8010,10.0,2.36,237.33,3.13,'1111122,1111122,1111122' 
COMPS,ioos:station:USF.COMPS:FHP:1,2015-07-01T04:18:00Z,28.1530,-82.8010,10.0,2.48,227.69,3.13,'1111122,1111122,1111122' 
COMPS,ioos:station:USF.COMPS:FHP:1,2015-07-01T04:24:00Z,28.1530,-82.8010,10.0,2.9,215.67,3.52,'1111122,1111122,1111122' 
COMPS,ioos:station:USF.COMPS:FHP:1,2015-07-01T04:30:00Z,28.1530,-82.8010,10.0,3.14,209.15,3.72,'1111122,1111122,1111122' 
COMPS,ioos:station:USF.COMPS:FHP:1,2015-07-01T04:36:00Z,28.1530,-82.8010,10.0,3.23,221.78,4.11,'1111122,1111122,1111122' 
COMPS,ioos:station:USF.COMPS:FHP:1,2015-07-01T04:42:00Z,28.1530,-82.8010,10.0,3.16,226.83,3.92,'1111122,1111122,1111122' 
COMPS,ioos:station:USF.COMPS:FHP:1,2015-07-01T04:48:00Z,28.1530,-82.8010,10.0,3.97,226.12,5.87,'1111122,1111122,1111122' 
COMPS,ioos:station:USF.COMPS:FHP:1,2015-07-01T04:54:00Z,28.1530,-82.8010,10.0,3.85,235.1,4.5,'1111122,1111122,1111122' 
COMPS,ioos:station:USF.COMPS:FHP:1,2015-07-01T05:00:00Z,28.1530,-82.8010,10.0,3.93,235.57,4.99,'1111122,1111122,1111122' 
COMPS,ioos:station:USF.COMPS:FHP:1,2015-07-01T05:06:00Z,28.1530,-82.8010,10.0,3.78,225.96,4.5,'1111122,1111122,1111122' 
COMPS,ioos:station:USF.COMPS:FHP:1,2015-07-01T05:12:00Z,28.1530,-82.8010,10.0,3.41,230.82,4.11,'1111122,1111122,1111122' 
COMPS,ioos:station:USF.COMPS:FHP:1,2015-07-01T05:18:00Z,28.1530,-82.8010,10.0,3.31,233.74,3.72,'1111122,1111122,1111122' 
COMPS,ioos:station:USF.COMPS:FHP:1,2015-07-01T05:24:00Z,28.1530,-82.8010,10.0,2.56,247.54,3.23,'1111122,1111122,1111122' 
COMPS,ioos:station:USF.COMPS:FHP:1,2015-07-01T05:30:00Z,28.1530,-82.8010,10.0,2.62,240.49,3.23,'1111122,1111122,1111122' 
COMPS,ioos:station:USF.COMPS:FHP:1,2015-07-01T05:36:00Z,28.1530,-82.8010,10.0,3.01,248.78,3.62,'1111122,1111122,1111122' 
COMPS,ioos:station:USF.COMPS:FHP:1,2015-07-01T05:42:00Z,28.1530,-82.8010,10.0,2.91,252.76,3.92,'1111122,1111122,1111122' 
COMPS,ioos:station:USF.COMPS:FHP:1,2015-07-01T05:48:00Z,28.1530,-82.8010,10.0,2.56,254.87,3.13,'1111122,1111122,1111122' 
COMPS,ioos:station:USF.COMPS:FHP:1,2015-07-01T05:54:00Z,28.1530,-82.8010,10.0,2.94,248.71,3.52,'1111122,1111122,1111122' 
COMPS,ioos:station:USF.COMPS:FHP:1,2015-07-01T06:00:00Z,28.1530,-82.8010,10.0,2.62,247.02,3.43,'1111122,1111122,1111122' 
COMPS,ioos:station:USF.COMPS:FHP:1,2015-07-01T06:06:00Z,28.1530,-82.8010,10.0,2.61,247.07,3.52,'1111122,1111122,1111122' 
COMPS,ioos:station:USF.COMPS:FHP:1,2015-07-01T06:12:00Z,28.1530,-82.8010,10.0,2.74,249.51,3.43,'1111122,1111122,1111122' 
COMPS,ioos:station:USF.COMPS:FHP:1,2015-07-01T06:18:00Z,28.1530,-82.8010,10.0,2.71,247.14,3.43,'1111122,1111122,1111122' 
COMPS,ioos:station:USF.COMPS:FHP:1,2015-07-01T06:24:00Z,28.1530,-82.8010,10.0,2.57,239.62,2.94,'1111122,1111122,1111122' 
COMPS,ioos:station:USF.COMPS:FHP:1,2015-07-01T06:30:00Z,28.1530,-82.8010,10.0,3.05,246.01,3.82,'1111122,1111122,1111122' 
COMPS,ioos:station:USF.COMPS:FHP:1,2015-07-01T06:36:00Z,28.1530,-82.8010,10.0,2.93,254.3,3.62,'1111122,1111122,1111122' 
COMPS,ioos:station:USF.COMPS:FHP:1,2015-07-01T06:42:00Z,28.1530,-82.8010,10.0,2.72,255.23,3.43,'1111122,1111122,1111122' 
COMPS,ioos:station:USF.COMPS:FHP:1,2015-07-01T06:48:00Z,28.1530,-82.8010,10.0,3.04,251.17,3.72,'1111122,1111122,1111122' 
COMPS,ioos:station:USF.COMPS:FHP:1,2015-07-01T06:54:00Z,28.1530,-82.8010,10.0,3.06,252.35,3.92,'1111122,1111122,1111122' 
COMPS,ioos:station:USF.COMPS:FHP:1,2015-07-01T07:00:00Z,28.1530,-82.8010,10.0,3.03,256.68,4.01,'1111122,1111122,1111122' 
COMPS,ioos:station:USF.COMPS:FHP:1,2015-07-01T07:06:00Z,28.1530,-82.8010,10.0,3.19,255.61,4.31,'1111122,1111122,1111122' 
COMPS,ioos:station:USF.COMPS:FHP:1,2015-07-01T07:12:00Z,28.1530,-82.8010,10.0,2.61,262.59,3.62,'1111122,1111122,1111122' 
COMPS,ioos:station:USF.COMPS:FHP:1,2015-07-01T07:18:00Z,28.1530,-82.8010,10.0,2.99,272.72,3.72,'1111122,1111122,1111122' 
COMPS,ioos:station:USF.COMPS:FHP:1,2015-07-01T07:24:00Z,28.1530,-82.8010,10.0,2.81,258.47,3.33,'1111122,1111122,1111122' 
COMPS,ioos:station:USF.COMPS:FHP:1,2015-07-01T07:30:00Z,28.1530,-82.8010,10.0,2.25,250.32,2.84,'1111122,1111122,1111122' 
COMPS,ioos:station:USF.COMPS:FHP:1,2015-07-01T07:36:00Z,28.1530,-82.8010,10.0,2.58,245.23,3.52,'1111122,1111122,1111122' 
COMPS,ioos:station:USF.COMPS:FHP:1,2015-07-01T07:42:00Z,28.1530,-82.8010,10.0,2.87,234.71,3.62,'1111122,1111122,1111122' 
COMPS,ioos:station:USF.COMPS:FHP:1,2015-07-01T07:48:00Z,28.1530,-82.8010,10.0,2.86,256.1,3.52,'1111122,1111122,1111122' 
COMPS,ioos:station:USF.COMPS:FHP:1,2015-07-01T07:54:00Z,28.1530,-82.8010,10.0,3.39,253.73,4.01,'1111122,1111122,1111122' 
COMPS,ioos:station:USF.COMPS:FHP:1,2015-07-01T08:00:00Z,28.1530,-82.8010,10.0,3.53,261.5,4.11,'1111122,1111122,1111122' 
COMPS,ioos:station:USF.COMPS:FHP:1,2015-07-01T08:06:00Z,28.1530,-82.8010,10.0,3.16,253.1,3.52,'1111122,1111122,1111122' 
COMPS,ioos:station:USF.COMPS:FHP:1,2015-07-01T08:12:00Z,28.1530,-82.8010,10.0,3.1,247.3,3.62,'1111122,1111122,1111122' 
COMPS,ioos:station:USF.COMPS:FHP:1,2015-07-01T08:18:00Z,28.1530,-82.8010,10.0,2.99,246.27,3.52,'1111122,1111122,1111122' 
COMPS,ioos:station:USF.COMPS:FHP:1,2015-07-01T08:24:00Z,28.1530,-82.8010,10.0,2.95,247.5,3.52,'1111122,1111122,1111122' 
COMPS,ioos:station:USF.COMPS:FHP:1,2015-07-01T08:30:00Z,28.1530,-82.8010,10.0,2.53,259.87,3.52,'1111122,1111122,1111122' 
COMPS,ioos:station:USF.COMPS:FHP:1,2015-07-01T08:36:00Z,28.1530,-82.8010,10.0,3.03,249.84,3.62,'1111122,1111122,1111122' 
COMPS,ioos:station:USF.COMPS:FHP:1,2015-07-01T08:42:00Z,28.1530,-82.8010,10.0,3.24,249.32,3.82,'1111122,1111122,1111122' 
COMPS,ioos:station:USF.COMPS:FHP:1,2015-07-01T08:48:00Z,28.1530,-82.8010,10.0,2.93,257.94,3.62,'1111122,1111122,1111122' 
COMPS,ioos:station:USF.COMPS:FHP:1,2015-07-01T08:54:00Z,28.1530,-82.8010,10.0,3.41,265.29,4.11,'1111122,1111122,1111122' 
COMPS,ioos:station:USF.COMPS:FHP:1,2015-07-01T09:00:00Z,28.1530,-82.8010,10.0,3.53,261.82,4.31,'1111122,1111122,1111122' 
COMPS,ioos:station:USF.COMPS:FHP:1,2015-07-01T09:06:00Z,28.1530,-82.8010,10.0,3.79,264.39,4.5,'1111122,1111122,1111122' 
COMPS,ioos:station:USF.COMPS:FHP:1,2015-07-01T09:12:00Z,28.1530,-82.8010,10.0,3.75,275.78,4.7,'1111122,1111122,1111122' 
COMPS,ioos:station:USF.COMPS:FHP:1,2015-07-01T09:18:00Z,28.1530,-82.8010,10.0,4.11,276.83,4.7,'1111122,1111122,1111122' 
COMPS,ioos:station:USF.COMPS:FHP:1,2015-07-01T09:24:00Z,28.1530,-82.8010,10.0,3.86,281.54,5.09,'1111122,1111122,1111122' 
COMPS,ioos:station:USF.COMPS:FHP:1,2015-07-01T09:30:00Z,28.1530,-82.8010,10.0,3.77,281.04,5.09,'1111122,1111122,1111122' 
COMPS,ioos:station:USF.COMPS:FHP:1,2015-07-01T09:36:00Z,28.1530,-82.8010,10.0,3.89,283.53,4.8,'1111122,1111122,1111122' 
COMPS,ioos:station:USF.COMPS:FHP:1,2015-07-01T09:42:00Z,28.1530,-82.8010,10.0,3.53,288.54,5.48,'1111122,1111122,1111122' 
COMPS,ioos:station:USF.COMPS:FHP:1,2015-07-01T09:48:00Z,28.1530,-82.8010,10.0,4.0,285.7,4.7,'1111122,1111122,1111122' 
COMPS,ioos:station:USF.COMPS:FHP:1,2015-07-01T09:54:00Z,28.1530,-82.8010,10.0,3.36,292.5,4.5,'1111122,1111122,1111122' 
COMPS,ioos:station:USF.COMPS:FHP:1,2015-07-01T10:00:00Z,28.1530,-82.8010,10.0,2.95,290.53,4.31,'1111122,1111122,1111122' 
COMPS,ioos:station:USF.COMPS:FHP:1,2015-07-01T10:06:00Z,28.1530,-82.8010,10.0,2.72,294.07,3.33,'1111122,1111122,1111122' 
COMPS,ioos:station:USF.COMPS:FHP:1,2015-07-01T10:12:00Z,28.1530,-82.8010,10.0,2.58,299.08,3.33,'1111122,1111122,1111122' 
COMPS,ioos:station:USF.COMPS:FHP:1,2015-07-01T10:18:00Z,28.1530,-82.8010,10.0,2.88,298.38,4.11,'1111122,1111122,1111122' 
COMPS,ioos:station:USF.COMPS:FHP:1,2015-07-01T10:24:00Z,28.1530,-82.8010,10.0,2.86,297.48,3.33,'1111122,1111122,1111122' 
COMPS,ioos:station:USF.COMPS:FHP:1,2015-07-01T10:30:00Z,28.1530,-82.8010,10.0,2.88,300.03,3.72,'1111122,1111122,1111122' 
COMPS,ioos:station:USF.COMPS:FHP:1,2015-07-01T10:36:00Z,28.1530,-82.8010,10.0,2.94,297.49,3.52,'1111122,1111122,1111122' 
COMPS,ioos:station:USF.COMPS:FHP:1,2015-07-01T10:42:00Z,28.1530,-82.8010,10.0,3.1,284.95,3.92,'1111122,1111122,1111122' 
COMPS,ioos:station:USF.COMPS:FHP:1,2015-07-01T10:48:00Z,28.1530,-82.8010,10.0,2.85,289.24,3.82,'1111122,1111122,1111122' 
COMPS,ioos:station:USF.COMPS:FHP:1,2015-07-01T10:54:00Z,28.1530,-82.8010,10.0,2.7,293.21,3.82,'1111122,1111122,1111122' 
COMPS,ioos:station:USF.COMPS:FHP:1,2015-07-01T11:00:00Z,28.1530,-82.8010,10.0,3.02,287.88,4.11,'1111122,1111122,1111122' 
COMPS,ioos:station:USF.COMPS:FHP:1,2015-07-01T11:06:00Z,28.1530,-82.8010,10.0,2.67,284.9,3.43,'1111122,1111122,1111122' 
COMPS,ioos:station:USF.COMPS:FHP:1,2015-07-01T11:12:00Z,28.1530,-82.8010,10.0,2.65,280.2,3.23,'1111122,1111122,1111122' 
COMPS,ioos:station:USF.COMPS:FHP:1,2015-07-01T11:18:00Z,28.1530,-82.8010,10.0,3.09,270.09,3.92,'1111122,1111122,1111122' 
COMPS,ioos:station:USF.COMPS:FHP:1,2015-07-01T11:24:00Z,28.1530,-82.8010,10.0,2.93,274.81,3.72,'1111122,1111122,1111122' 
COMPS,ioos:station:USF.COMPS:FHP:1,2015-07-01T11:30:00Z,28.1530,-82.8010,10.0,2.22,272.0,2.84,'1111122,1111122,1111122' 
COMPS,ioos:station:USF.COMPS:FHP:1,2015-07-01T11:36:00Z,28.1530,-82.8010,10.0,2.37,274.27,3.62,'1111122,1111122,1111122' 
COMPS,ioos:station:USF.COMPS:FHP:1,2015-07-01T11:42:00Z,28.1530,-82.8010,10.0,2.89,266.11,4.31,'1111122,1111122,1111122' 
COMPS,ioos:station:USF.COMPS:FHP:1,2015-07-01T11:48:00Z,28.1530,-82.8010,10.0,2.01,258.73,2.74,'1111122,1111122,1111122' 
COMPS,ioos:station:USF.COMPS:FHP:1,2015-07-01T11:54:00Z,28.1530,-82.8010,10.0,1.5,253.32,2.45,'1111122,1111122,1111122' 
COMPS,ioos:station:USF.COMPS:FHP:1,2015-07-01T12:00:00Z,28.1530,-82.8010,10.0,2.0,232.48,2.54,'1111122,1111122,1111122' 
COMPS,ioos:station:USF.COMPS:FHP:1,2015-07-01T12:06:00Z,28.1530,-82.8010,10.0,1.84,244.11,2.45,'1111122,1111122,1111122' 
COMPS,ioos:station:USF.COMPS:FHP:1,2015-07-01T12:12:00Z,28.1530,-82.8010,10.0,1.91,239.77,2.35,'1111122,1111122,1111122' 
COMPS,ioos:station:USF.COMPS:FHP:1,2015-07-01T12:18:00Z,28.1530,-82.8010,10.0,1.46,251.71,2.05,'1111122,1111122,1111122' 
COMPS,ioos:station:USF.COMPS:FHP:1,2015-07-01T12:24:00Z,28.1530,-82.8010,10.0,1.79,259.5,2.74,'1111122,1111122,1111122' 
COMPS,ioos:station:USF.COMPS:FHP:1,2015-07-01T12:30:00Z,28.1530,-82.8010,10.0,2.17,252.49,3.13,'1111122,1111122,1111122' 
COMPS,ioos:station:USF.COMPS:FHP:1,2015-07-01T12:36:00Z,28.1530,-82.8010,10.0,2.23,266.6,2.94,'1111122,1111122,1111122' 
COMPS,ioos:station:USF.COMPS:FHP:1,2015-07-01T12:42:00Z,28.1530,-82.8010,10.0,1.85,258.91,2.35,'1111122,1111122,1111122' 
COMPS,ioos:station:USF.COMPS:FHP:1,2015-07-01T12:48:00Z,28.1530,-82.8010,10.0,1.86,256.7,2.45,'1111122,1111122,1111122' 
COMPS,ioos:station:USF.COMPS:FHP:1,2015-07-01T12:54:00Z,28.1530,-82.8010,10.0,1.8,257.3,2.54,'1111122,1111122,1111122' 
COMPS,ioos:station:USF.COMPS:FHP:1,2015-07-01T13:00:00Z,28.1530,-82.8010,10.0,1.87,245.1,2.45,'1111122,1111122,1111122' 
COMPS,ioos:station:USF.COMPS:FHP:1,2015-07-01T13:06:00Z,28.1530,-82.8010,10.0,1.92,257.46,2.54,'1111122,1111122,1111122' 
COMPS,ioos:station:USF.COMPS:FHP:1,2015-07-01T13:12:00Z,28.1530,-82.8010,10.0,1.93,263.73,2.35,'1111122,1111122,1111122' 
COMPS,ioos:station:USF.COMPS:FHP:1,2015-07-01T13:18:00Z,28.1530,-82.8010,10.0,2.16,273.52,3.03,'1111122,1111122,1111122' 
COMPS,ioos:station:USF.COMPS:FHP:1,2015-07-01T13:24:00Z,28.1530,-82.8010,10.0,2.35,280.15,3.13,'1111122,1111122,1111122' 
COMPS,ioos:station:USF.COMPS:FHP:1,2015-07-01T13:30:00Z,28.1530,-82.8010,10.0,2.66,269.5,3.62,'1111122,1111122,1111122' 
COMPS,ioos:station:USF.COMPS:FHP:1,2015-07-01T13:36:00Z,28.1530,-82.8010,10.0,2.82,261.68,3.72,'1111122,1111122,1111122' 
COMPS,ioos:station:USF.COMPS:FHP:1,2015-07-01T13:42:00Z,28.1530,-82.8010,10.0,2.97,270.1,3.72,'1111122,1111122,1111122' 
COMPS,ioos:station:USF.COMPS:FHP:1,2015-07-01T13:48:00Z,28.1530,-82.8010,10.0,2.89,256.97,3.52,'1111122,1111122,1111122' 
COMPS,ioos:station:USF.COMPS:FHP:1,2015-07-01T13:54:00Z,28.1530,-82.8010,10.0,2.67,257.49,3.23,'1111122,1111122,1111122' 
COMPS,ioos:station:USF.COMPS:FHP:1,2015-07-01T14:00:00Z,28.1530,-82.8010,10.0,3.45,254.01,4.6,'1111122,1111122,1111122' 
COMPS,ioos:station:USF.COMPS:FHP:1,2015-07-01T14:06:00Z,28.1530,-82.8010,10.0,3.67,263.67,4.31,'1111122,1111122,1111122' 
COMPS,ioos:station:USF.COMPS:FHP:1,2015-07-01T14:12:00Z,28.1530,-82.8010,10.0,3.35,258.34,3.82,'1111122,1111122,1111122' 
COMPS,ioos:station:USF.COMPS:FHP:1,2015-07-01T14:18:00Z,28.1530,-82.8010,10.0,3.38,260.64,4.01,'1111122,1111122,1111122' 
COMPS,ioos:station:USF.COMPS:FHP:1,2015-07-01T14:24:00Z,28.1530,-82.8010,10.0,3.45,268.14,4.01,'1111122,1111122,1111122' 
COMPS,ioos:station:USF.COMPS:FHP:1,2015-07-01T14:30:00Z,28.1530,-82.8010,10.0,3.12,266.9,3.82,'1111122,1111122,1111122' 
COMPS,ioos:station:USF.COMPS:FHP:1,2015-07-01T14:36:00Z,28.1530,-82.8010,10.0,2.93,266.63,3.72,'1111122,1111122,1111122' 
COMPS,ioos:station:USF.COMPS:FHP:1,2015-07-01T14:42:00Z,28.1530,-82.8010,10.0,3.14,281.69,4.11,'1111122,1111122,1111122' 
COMPS,ioos:station:USF.COMPS:FHP:1,2015-07-01T14:48:00Z,28.1530,-82.8010,10.0,3.48,275.59,4.21,'1111122,1111122,1111122' 
COMPS,ioos:station:USF.COMPS:FHP:1,2015-07-01T14:54:00Z,28.1530,-82.8010,10.0,3.28,279.59,4.01,'1111122,1111122,1111122' 
COMPS,ioos:station:USF.COMPS:FHP:1,2015-07-01T15:00:00Z,28.1530,-82.8010,10.0,3.14,304.88,4.31,'1111122,1111122,1111122' 
COMPS,ioos:station:USF.COMPS:FHP:1,2015-07-01T15:06:00Z,28.1530,-82.8010,10.0,4.72,338.55,5.97,'1111122,1111122,1111122' 
COMPS,ioos:station:USF.COMPS:FHP:1,2015-07-01T15:12:00Z,28.1530,-82.8010,10.0,4.55,0.83,5.58,'1111122,1111122,1111122' 
COMPS,ioos:station:USF.COMPS:FHP:1,2015-07-01T15:18:00Z,28.1530,-82.8010,10.0,4.82,1.27,5.58,'1111122,1111122,1111122' 
COMPS,ioos:station:USF.COMPS:FHP:1,2015-07-01T15:24:00Z,28.1530,-82.8010,10.0,3.75,1.33,4.6,'1111122,1111122,1111122' 
COMPS,ioos:station:USF.COMPS:FHP:1,2015-07-01T15:30:00Z,28.1530,-82.8010,10.0,1.99,4.92,2.84,'1111122,1111122,1111122' 
COMPS,ioos:station:USF.COMPS:FHP:1,2015-07-01T15:36:00Z,28.1530,-82.8010,10.0,1.47,6.91,1.86,'1111122,1111122,1111122' 
COMPS,ioos:station:USF.COMPS:FHP:1,2015-07-01T15:42:00Z,28.1530,-82.8010,10.0,1.62,7.16,2.64,'1111122,1111122,1111122' 
COMPS,ioos:station:USF.COMPS:FHP:1,2015-07-01T15:48:00Z,28.1530,-82.8010,10.0,2.3,5.45,2.94,'1111122,1111122,1111122' 
COMPS,ioos:station:USF.COMPS:FHP:1,2015-07-01T15:54:00Z,28.1530,-82.8010,10.0,2.37,358.74,3.03,'1111122,1111122,1111122' 
COMPS,ioos:station:USF.COMPS:FHP:1,2015-07-01T16:00:00Z,28.1530,-82.8010,10.0,2.95,356.84,3.62,'1111122,1111122,1111122' 
COMPS,ioos:station:USF.COMPS:FHP:1,2015-07-01T16:06:00Z,28.1530,-82.8010,10.0,3.15,358.23,3.62,'1111122,1111122,1111122' 
COMPS,ioos:station:USF.COMPS:FHP:1,2015-07-01T16:12:00Z,28.1530,-82.8010,10.0,1.91,3.53,2.94,'1111122,1111122,1111122' 
COMPS,ioos:station:USF.COMPS:FHP:1,2015-07-01T16:18:00Z,28.1530,-82.8010,10.0,1.5,354.82,2.35,'1111122,1111122,1111122' 
COMPS,ioos:station:USF.COMPS:FHP:1,2015-07-01T16:24:00Z,28.1530,-82.8010,10.0,1.63,352.96,2.25,'1111122,1111122,1111122' 
COMPS,ioos:station:USF.COMPS:FHP:1,2015-07-01T16:30:00Z,28.1530,-82.8010,10.0,1.69,16.92,2.15,'1111122,1111122,1111122' 
COMPS,ioos:station:USF.COMPS:FHP:1,2015-07-01T16:36:00Z,28.1530,-82.8010,10.0,1.32,11.76,1.86,'1111122,1111122,1111122' 
COMPS,ioos:station:USF.COMPS:FHP:1,2015-07-01T16:42:00Z,28.1530,-82.8010,10.0,0.63,21.18,1.27,'1111122,1111122,1111122' 
COMPS,ioos:station:USF.COMPS:FHP:1,2015-07-01T16:48:00Z,28.1530,-82.8010,10.0,0.69,8.87,1.86,'1111122,1111122,1111122' 
COMPS,ioos:station:USF.COMPS:FHP:1,2015-07-01T16:54:00Z,28.1530,-82.8010,10.0,1.4,342.27,1.96,'1111122,1111122,1111122' 
COMPS,ioos:station:USF.COMPS:FHP:1,2015-07-01T17:00:00Z,28.1530,-82.8010,10.0,1.29,342.72,1.86,'1111122,1111122,1111122' 
COMPS,ioos:station:USF.COMPS:FHP:1,2015-07-01T17:06:00Z,28.1530,-82.8010,10.0,0.83,339.09,1.47,'1111122,1111122,1111122' 
COMPS,ioos:station:USF.COMPS:FHP:1,2015-07-01T17:12:00Z,28.1530,-82.8010,10.0,0.76,335.72,1.66,'1111122,1111122,1111122' 
COMPS,ioos:station:USF.COMPS:FHP:1,2015-07-01T17:18:00Z,28.1530,-82.8010,10.0,0.73,271.32,1.07,'1111122,1111122,1111122' 
COMPS,ioos:station:USF.COMPS:FHP:1,2015-07-01T17:24:00Z,28.1530,-82.8010,10.0,0.37,241.31,0.78,'1111122,1111122,1111122' 
COMPS,ioos:station:USF.COMPS:FHP:1,2015-07-01T17:30:00Z,28.1530,-82.8010,10.0,0.53,234.34,0.88,'1111122,1111122,1111122' 
COMPS,ioos:station:USF.COMPS:FHP:1,2015-07-01T17:36:00Z,28.1530,-82.8010,10.0,0.58,250.59,1.07,'1111122,1111122,1111122' 
COMPS,ioos:station:USF.COMPS:FHP:1,2015-07-01T17:42:00Z,28.1530,-82.8010,10.0,0.89,256.83,1.17,'1111122,1111122,1111122' 
COMPS,ioos:station:USF.COMPS:FHP:1,2015-07-01T17:48:00Z,28.1530,-82.8010,10.0,0.91,239.77,1.66,'1111122,1111122,1111122' 
COMPS,ioos:station:USF.COMPS:FHP:1,2015-07-01T17:54:00Z,28.1530,-82.8010,10.0,1.26,230.3,1.56,'1111122,1111122,1111122' 
COMPS,ioos:station:USF.COMPS:FHP:1,2015-07-01T18:00:00Z,28.1530,-82.8010,10.0,1.28,244.19,1.76,'1111122,1111122,1111122' 
COMPS,ioos:station:USF.COMPS:FHP:1,2015-07-01T18:06:00Z,28.1530,-82.8010,10.0,1.44,252.7,1.96,'1111122,1111122,1111122' 
COMPS,ioos:station:USF.COMPS:FHP:1,2015-07-01T18:12:00Z,28.1530,-82.8010,10.0,1.5,240.26,2.05,'1111122,1111122,1111122' 
COMPS,ioos:station:USF.COMPS:FHP:1,2015-07-01T18:18:00Z,28.1530,-82.8010,10.0,1.48,269.49,2.25,'1111122,1111122,1111122' 
COMPS,ioos:station:USF.COMPS:FHP:1,2015-07-01T18:24:00Z,28.1530,-82.8010,10.0,1.67,260.18,2.45,'1111122,1111122,1111122' 
COMPS,ioos:station:USF.COMPS:FHP:1,2015-07-01T18:30:00Z,28.1530,-82.8010,10.0,1.49,237.99,1.96,'1111122,1111122,1111122' 
COMPS,ioos:station:USF.COMPS:FHP:1,2015-07-01T18:36:00Z,28.1530,-82.8010,10.0,2.53,252.51,3.03,'1111122,1111122,1111122' 
COMPS,ioos:station:USF.COMPS:FHP:1,2015-07-01T18:42:00Z,28.1530,-82.8010,10.0,2.57,243.08,3.13,'1111122,1111122,1111122' 
COMPS,ioos:station:USF.COMPS:FHP:1,2015-07-01T18:48:00Z,28.1530,-82.8010,10.0,2.15,234.08,2.84,'1111122,1111122,1111122' 
COMPS,ioos:station:USF.COMPS:FHP:1,2015-07-01T18:54:00Z,28.1530,-82.8010,10.0,1.96,216.42,2.74,'1111122,1111122,1111122' 
COMPS,ioos:station:USF.COMPS:FHP:1,2015-07-01T19:00:00Z,28.1530,-82.8010,10.0,2.25,222.37,3.33,'1111122,1111122,1111122' 
COMPS,ioos:station:USF.COMPS:FHP:1,2015-07-01T19:06:00Z,28.1530,-82.8010,10.0,2.15,211.65,2.84,'1111122,1111122,1111122' 
COMPS,ioos:station:USF.COMPS:FHP:1,2015-07-01T19:12:00Z,28.1530,-82.8010,10.0,2.27,214.37,3.33,'1111122,1111122,1111122' 
COMPS,ioos:station:USF.COMPS:FHP:1,2015-07-01T19:18:00Z,28.1530,-82.8010,10.0,2.78,208.12,3.52,'1111122,1111122,1111122' 
COMPS,ioos:station:USF.COMPS:FHP:1,2015-07-01T19:24:00Z,28.1530,-82.8010,10.0,2.71,216.19,3.33,'1111122,1111122,1111122' 
COMPS,ioos:station:USF.COMPS:FHP:1,2015-07-01T19:30:00Z,28.1530,-82.8010,10.0,2.48,218.2,3.23,'1111122,1111122,1111122' 
COMPS,ioos:station:USF.COMPS:FHP:1,2015-07-01T19:36:00Z,28.1530,-82.8010,10.0,2.49,223.89,3.43,'1111122,1111122,1111122' 
COMPS,ioos:station:USF.COMPS:FHP:1,2015-07-01T19:42:00Z,28.1530,-82.8010,10.0,2.37,235.15,3.82,'1111122,1111122,1111122' 
COMPS,ioos:station:USF.COMPS:FHP:1,2015-07-01T19:48:00Z,28.1530,-82.8010,10.0,3.07,227.3,3.82,'1111122,1111122,1111122' 
COMPS,ioos:station:USF.COMPS:FHP:1,2015-07-01T19:54:00Z,28.1530,-82.8010,10.0,2.83,235.85,3.52,'1111122,1111122,1111122' 
COMPS,ioos:station:USF.COMPS:FHP:1,2015-07-01T20:00:00Z,28.1530,-82.8010,10.0,2.83,244.67,3.72,'1111122,1111122,1111122' 
COMPS,ioos:station:USF.COMPS:FHP:1,2015-07-01T20:06:00Z,28.1530,-82.8010,10.0,2.8,241.25,3.52,'1111122,1111122,1111122' 
COMPS,ioos:station:USF.COMPS:FHP:1,2015-07-01T20:12:00Z,28.1530,-82.8010,10.0,2.93,247.68,3.52,'1111122,1111122,1111122' 
COMPS,ioos:station:USF.COMPS:FHP:1,2015-07-01T20:18:00Z,28.1530,-82.8010,10.0,3.05,243.34,3.43,'1111122,1111122,1111122' 
COMPS,ioos:station:USF.COMPS:FHP:1,2015-07-01T20:24:00Z,28.1530,-82.8010,10.0,2.79,253.91,3.33,'1111122,1111122,1111122' 
COMPS,ioos:station:USF.COMPS:FHP:1,2015-07-01T20:30:00Z,28.1530,-82.8010,10.0,3.13,267.52,3.82,'1111122,1111122,1111122' 
COMPS,ioos:station:USF.COMPS:FHP:1,2015-07-01T20:36:00Z,28.1530,-82.8010,10.0,3.51,277.41,4.11,'1111122,1111122,1111122' 
COMPS,ioos:station:USF.COMPS:FHP:1,2015-07-01T20:42:00Z,28.1530,-82.8010,10.0,3.81,286.16,4.9,'1111122,1111122,1111122' 
COMPS,ioos:station:USF.COMPS:FHP:1,2015-07-01T20:48:00Z,28.1530,-82.8010,10.0,4.27,290.86,5.68,'1111122,1111122,1111122' 
COMPS,ioos:station:USF.COMPS:FHP:1,2015-07-01T20:54:00Z,28.1530,-82.8010,10.0,3.8,296.69,4.7,'1111122,1111122,1111122' 
COMPS,ioos:station:USF.COMPS:FHP:1,2015-07-01T21:00:00Z,28.1530,-82.8010,10.0,4.33,287.49,5.19,'1111122,1111122,1111122' 
COMPS,ioos:station:USF.COMPS:FHP:1,2015-07-01T21:06:00Z,28.1530,-82.8010,10.0,4.12,305.04,5.48,'1111122,1111122,1111122' 
COMPS,ioos:station:USF.COMPS:FHP:1,2015-07-01T21:12:00Z,28.1530,-82.8010,10.0,4.64,304.69,6.17,'1111122,1111122,1111122' 
COMPS,ioos:station:USF.COMPS:FHP:1,2015-07-01T21:18:00Z,28.1530,-82.8010,10.0,4.32,315.36,5.58,'1111122,1111122,1111122' 
COMPS,ioos:station:USF.COMPS:FHP:1,2015-07-01T21:24:00Z,28.1530,-82.8010,10.0,4.85,313.15,5.87,'1111122,1111122,1111122' 
COMPS,ioos:station:USF.COMPS:FHP:1,2015-07-01T21:30:00Z,28.1530,-82.8010,10.0,4.15,307.29,4.99,'1111122,1111122,1111122' 
COMPS,ioos:station:USF.COMPS:FHP:1,2015-07-01T21:36:00Z,28.1530,-82.8010,10.0,4.21,315.03,5.87,'1111122,1111122,1111122' 
COMPS,ioos:station:USF.COMPS:FHP:1,2015-07-01T21:42:00Z,28.1530,-82.8010,10.0,4.4,325.18,5.39,'1111122,1111122,1111122' 
COMPS,ioos:station:USF.COMPS:FHP:1,2015-07-01T21:48:00Z,28.1530,-82.8010,10.0,3.65,313.1,4.9,'1111122,1111122,1111122' 
COMPS,ioos:station:USF.COMPS:FHP:1,2015-07-01T21:54:00Z,28.1530,-82.8010,10.0,4.22,313.85,5.29,'1111122,1111122,1111122' 
COMPS,ioos:station:USF.COMPS:FHP:1,2015-07-01T22:00:00Z,28.1530,-82.8010,10.0,4.04,321.19,4.99,'1111122,1111122,1111122' 
COMPS,ioos:station:USF.COMPS:FHP:1,2015-07-01T22:06:00Z,28.1530,-82.8010,10.0,4.03,324.54,5.19,'1111122,1111122,1111122' 
COMPS,ioos:station:USF.COMPS:FHP:1,2015-07-01T22:12:00Z,28.1530,-82.8010,10.0,3.44,325.3,4.21,'1111122,1111122,1111122' 
COMPS,ioos:station:USF.COMPS:FHP:1,2015-07-01T22:18:00Z,28.1530,-82.8010,10.0,3.43,317.22,4.7,'1111122,1111122,1111122' 
COMPS,ioos:station:USF.COMPS:FHP:1,2015-07-01T22:24:00Z,28.1530,-82.8010,10.0,3.12,314.7,4.41,'1111122,1111122,1111122' 
COMPS,ioos:station:USF.COMPS:FHP:1,2015-07-01T22:30:00Z,28.1530,-82.8010,10.0,3.77,332.07,5.29,'1111122,1111122,1111122' 